This demonstration page uses our WeatherBlox Daily Observations layout. Learn more.

Left ArrowRight Arrow

Hourly Observations for August 28, 2015

Temp ( °F °C ) Dew Point ( °F °C ) Humidity (%) Winds ( mph kmh ) Pressure ( in mb ) Visibility ( mi km ) Precip ( " mm )
12:33 am 00:33 Cloudy with Nearby Thunderstorms 70 21.1 67 19.4 90 90 NE 15 24 29.85 1011 6 9.65604 0.01 0.254
12:42 am 00:42 Cloudy with Heavy Thunderstorms 70 21 66 19 88 88 NE 20 31 29.88 1012 2.5 4.02335 0 0
12:54 am 00:54 Cloudy with Heavy Thunderstorms 69 20.6 67 19.4 93 93 ENE 17 28 29.87 1011 2 3.21868 0.19 4.826
1:10 am 01:10 Cloudy with Nearby Thunderstorms 70 21.1 67 19.4 90 90 NE 6 9 29.88 1012 2.5 4.02335 0.14 3.556
1:20 am 01:20 Cloudy with Heavy Rain 70 21 66 19 88 88 ENE 9 15 29.88 1012 1.5 2.41401 0 0
1:28 am 01:28 Cloudy with Nearby Thunderstorms 69 20.6 67 19.4 93 93 E 12 19 29.85 1011 1.5 2.41401 0.45 11.43
1:35 am 01:35 Cloudy with Heavy Thunderstorms 69 20.6 67 19.4 93 93 E 10 17 29.88 1012 2 3.21868 0.56 14.224
1:43 am 01:43 Cloudy with Thunderstorms 69 20.6 67 19.4 93 93 E 12 19 29.85 1011 3 4.82802 0.6 15.24
1:46 am 01:46 Cloudy with Rain 70 21 68 20 94 94 E 8 13 29.85 1011 3 4.82802 0 0
1:54 am 01:54 Cloudy with Heavy Thunderstorms 69 20.6 68 20 96 96 E 14 22 29.84 1010 2 3.21868 0.68 17.272
2:07 am 02:07 Cloudy with Nearby Thunderstorms 69 20.6 68 20 96 96 E 10 17 29.85 1011 6 9.65604 0.09 2.286
2:28 am 02:28 Cloudy 70 21 68 20 94 94 ESE 8 13 29.85 1011 9 14.48406 0 0
2:54 am 02:54 Cloudy 70 21.1 68 20 93 93 SE 15 24 29.81 1010 9 14.48406 0.09 2.286
3:54 am 03:54 Cloudy 71 21.7 68 20 90 90 SSE 12 19 29.8 1009 10 16.0934 0 0
4:54 am 04:54 Cloudy 71 21.7 67 19.4 87 87 SSE 8 13 29.79 1009 10 16.0934 0 0
5:54 am 05:54 Cloudy 71 21.7 66 18.9 84 84 S 14 22 29.77 1008 10 16.0934 0 0
6:54 am 06:54 Sunny 72 22.2 66 18.9 82 82 S 14 22 29.78 1008 10 16.0934 0 0
7:54 am 07:54 Cloudy 73 22.8 66 18.9 79 79 SSW 12 19 29.8 1009 9 14.48406 0 0
8:27 am 08:27 Cloudy 73 22.8 67 19.4 81 81 S 13 20 29.77 1008 9 14.48406 0 0
8:54 am 08:54 Cloudy 73 22.8 67 19.4 81 81 SSW 10 17 29.8 1009 8 12.87472 0 0
9:54 am 09:54 Cloudy 75 23.9 68 20 79 79 SW 14 22 29.8 1009 8 12.87472 0 0
10:22 am 10:22 Cloudy 75 24 70 21 83 83 SW 14 22 29.77 1008 8 12.87472 0 0
10:44 am 10:44 Cloudy 73 23 68 20 83 83 W 13 20 29.8 1009 7 11.26538 0 0
10:54 am 10:54 Cloudy 75 23.9 68 20 79 79 W 10 17 29.82 1010 9 14.48406 0 0
11:22 am 11:22 Cloudy 75 24 68 20 78 78 WNW 10 17 29.83 1010 10 16.0934 0 0
11:54 am 11:54 Cloudy 76 24.4 68 20 77 77 W 7 11 29.84 1011 10 16.0934 0 0
12:37 pm 12:37 Mostly Cloudy 79 26 68 20 70 70 NW 6 9 29.83 1010 10 16.0934 0 0
12:54 pm 12:54 Cloudy 77 25 68 20 74 74 W 6 9 29.84 1011 10 16.0934 0 0
1:07 pm 13:07 Cloudy 79 26.1 68 20 69 69 W 5 7 29.83 1010 10 16.0934 0 0
1:54 pm 13:54 Cloudy 80 26.7 67 19.4 64 64 NW 14 22 29.83 1010 10 16.0934 0 0
2:54 pm 14:54 Cloudy 77 25 66 18.9 69 69 NW 14 22 29.85 1011 10 16.0934 0 0
3:54 pm 15:54 Cloudy 77 25 66 18.9 69 69 NNW 18 30 29.85 1011 10 16.0934 0 0
4:54 pm 16:54 Cloudy 74 23.3 64 17.8 71 71 NW 14 22 29.87 1012 10 16.0934 0 0
5:54 pm 17:54 Cloudy 74 23.3 64 17.8 71 71 NNW 13 20 29.88 1012 10 16.0934 0 0
6:54 pm 18:54 Cloudy 73 22.8 64 17.8 74 74 NNW 7 11 29.89 1012 10 16.0934 0 0
7:54 pm 19:54 Cloudy 72 22.2 63 17.2 73 73 NNW 13 20 29.9 1012 10 16.0934 0 0
8:54 pm 20:54 Mostly Cloudy 68 20 61 16.1 78 78 N 14 22 29.92 1013 10 16.0934 0 0
9:54 pm 21:54 Cloudy 67 19.4 62 16.7 84 84 N 7 11 29.95 1014 10 16.0934 0 0
10:37 pm 22:37 Cloudy 66 18.9 60 15.6 81 81 N 12 19 29.97 1015 10 16.0934 0 0
10:54 pm 22:54 Cloudy 66 18.9 60 15.6 81 81 N 12 19 29.96 1015 10 16.0934 0 0
11:54 pm 23:54 Cloudy 65 18.3 60 15.6 84 84 N 13 20 29.96 1014 10 16.0934 0 0

Powered by AerisWeather